Location: Brunembert
(50.7122°N, 1.8935°E)
Time: 09:31:36
(UTC+00:00)

TSX-5 - Pass Details

Date: 22 April 2021
Orbit: 404 x 1320 km, 68.9° (Epoch: 16 May)

Event Time Altitude Azimuth Distance (km) Brightness Sun altitude
Exits shadow 22:01:01 26° 225° (SW) 1,297 5.5 -22.4°
Maximum altitude 22:03:34 70° 304° (WNW) 631 4.1 -22.6°
Drops below altitude 10° 22:07:22 10° 29° (NNE) 1,734 6.8 -22.9°
Sets 22:09:19 0° 32° (NNE) 2,534 7.6 -23.0°
